Regional Weather Roundup
Issued by NWS

Home | Current Version | Previous Version | Text Only | Print | Product List | Glossary On
Versions: 1 2 3 4 5 6 7 8 9 10 11 12 13 14 15 16 17 18 19 20 21 22 23 24 25 26 27 28 29 30 31 32 33 34 35 36 37 38 39 40 41 42 43 44 45 46 47 48 49 50
000
ASUS45 KBOI 231610
RWRID
WEATHER ROUNDUP FOR IDAHO
NATIONAL WEATHER SERVICE BOISE ID
1000 AM MDT SAT AUG 23 2014

NOTE: "FAIR" INDICATES FEW OR NO CLOUDS BELOW 12000 FEET
WITH NO SIGNIFICANT WEATHER AND/OR OBSTRUCTIONS TO VISIBILITY

IDZ012-014-231700-
SOUTHWEST IDAHO


CITY           SKY/WX    TMP DP  RH WIND       PRES   REMARKS
BOISE          SUNNY     60  44  55 NW7       30.06R
CALDWELL       SUNNY     63  41  45 NW10      30.08S
MOUNTAIN HOME  SUNNY     63  42  46 W16       30.06S
$$

IDZ016-017-231700-
SOUTHCENTRAL IDAHO


CITY           SKY/WX    TMP DP  RH WIND       PRES   REMARKS
BURLEY         MOSUNNY   57  47  69 W9G21     30.07R
JEROME         SUNNY     55  48  77 SW12      30.08S
TWIN FALLS     SUNNY     59  44  57 SW15      30.08S
$$

IDZ019>023-231700-
SOUTHEAST IDAHO


CITY           SKY/WX    TMP DP  RH WIND       PRES   REMARKS
IDAHO FALLS    PTSUNNY   54  50  86 S15       30.06R
POCATELLO      MOSUNNY   56  48  74 SW17      30.08R
REXBURG        CLOUDY    51  48  89 SW12      30.05R
$$

IDZ006-010-011-018-031-032-231700-
CENTRAL IDAHO MOUNTAINS


CITY           SKY/WX    TMP DP  RH WIND       PRES   REMARKS
MCCALL         SUNNY     53  44  71 VRB5      30.09F
HAILEY         MOSUNNY   52  43  71 CALM      30.08S
STANLEY          N/A     43  40  89 CALM      30.14S
SALMON         CLOUDY    52  48  87 S3        30.07S
CHALLIS        CLOUDY    49  45  86 CALM      30.10R
$$

IDZ002-004-006-007-026-231700-
NORTHERN IDAHO


CITY           SKY/WX    TMP DP  RH WIND       PRES   REMARKS
LEWISTON       CLOUDY    63  57  81 CALM      30.11R
LOWELL           N/A     59  56  89 CALM      30.12R
COEUR D`ALENE  SUNNY     63  45  51 N15       30.14S
MULLAN PASS    MOSUNNY   48  39  71 CALM      30.20S
$$


USA.gov is the U.S. government's official web portal to all federal, state and local government web resources and services.